Regional Weather Roundup
Issued by NWS

Home | Current Version | Previous Version | Text Only | Print | Product List | Glossary On
Versions: 1 2 3 4 5 6 7 8 9 10 11 12 13 14 15 16 17 18 19 20 21 22 23 24 25 26 27 28 29 30 31 32 33 34 35 36 37 38 39 40 41 42 43 44 45 46 47 48 49 50
000
ASUS43 KLOT 260208
RWRIL

ILLINOIS REGIONAL WEATHER ROUNDUP
NATIONAL WEATHER SERVICE CHICAGO/ROMEOVILLE IL
900 PM CDT SUN SEP 25 2016

NOTE: "FAIR" INDICATES FEW OR NO CLOUDS BELOW 12,000 FEET WITH NO
SIGNIFICANT WEATHER AND/OR OBSTRUCTIONS TO VISIBILITY.

* THESE STATIONS ARE NOT UNDER NWS QUALITY CONTROL. THEY ALSO MAY NOT
  REPORT WEATHER SUCH AS PRECIPITATION OR FOG.

ILZ001-002-007-009-015-016-024-260300-
NORTHWEST ILLINOIS

CITY           SKY/WX    TMP DP  RH WIND       PRES   REMARKS
MOLINE         CLOUDY    67  52  58 W14G22    30.04R
STERLING*      CLOUDY    67  54  63 W12       30.03R
SAVANNA*       CLOUDY    67  53  61 W8        30.02R
$$

ILZ003-004-008-010-011-017-018-260300-
NORTH CENTRAL ILLINOIS

CITY           SKY/WX    TMP DP  RH WIND       PRES   REMARKS
ROCKFORD       CLOUDY    68  52  56 NW20G26   30.01R
FREEPORT*      CLOUDY    65  51  62 W13G25    30.02R
ROCHELLE*      CLOUDY    67  56  68 W16G25    30.01R
DE KALB*       CLOUDY    69  56  64 W18G28    29.99R
$$

ILZ005-006-012>014-019>023-260300-
NORTHEAST ILLINOIS

CITY           SKY/WX    TMP DP  RH WIND       PRES   REMARKS
CHICAGO-OHARE  MOCLDY    75  67  76 W14       29.92R
CHICAGO-MIDWAY MOCLDY    80  66  62 W12       29.92R HX  82
AURORA         CLOUDY    75  66  73 W22G29    29.96R
LANSING*       MOCLDY    74  69  84 SW8       29.93R
JOLIET*        PTCLDY    77  67  72 W9G22     29.95R
WAUKEGAN       MOCLDY    72  70  93 VRB6      29.90R
DUPAGE AIRPORT MOCLDY    75  65  70 W17       29.94R
KANKAKEE*      CLOUDY    73  67  80 SW6       29.96R
WHEELING       MOCLDY    75  68  78 W9        29.92R
MORRIS*        CLOUDY    76  65  70 W13G21    29.95R
ROMEOVILLE*    CLOUDY    76  69  78 W12G17    29.95R
NORTHERLY ISL    N/A     78  66  66 S7          N/A  HX  80
$$

LMZ740>746-260300-
SOUTHERN LAKE MICHIGAN

STATION/POSITION SKY/WX   TEMP    WIND        PRES    VSBY  WAVE
                          AIR SEA DIR/SP/G                  HT/PER
                          (F)     (DEG/KT/KT) (MB)    (MI)  (FT/S)
SOUTHERN BUOY              74 72  160/ 16/ 17 1011.0F         2/ 3
WILMETTE HARBOR            69 65  290/  2/  2   N/A           1/ 3
HARRISON CRIB              80     200/ 13/ 14   N/A
BURNHAM HARBOR             78     200/  5/ 10   N/A
CALUMET HARBOR             78     170/  7/ 10 1012.4R
BURNS HARBOR               77     180/  7/ 16 1013.5S
MICHIGAN CITY              75     140/ 11/ 13   N/A
MICHIGAN CITY 6N           71 69  180/ 10/ 12   N/A           1
ST. JOSEPH                 72 69  150/ 12/ 14 1012.6F         1
$$

ILZ025>027-034>036-040-047-049-050-058-095>099-260300-
WEST-CENTRAL ILLINOIS

CITY           SKY/WX    TMP DP  RH WIND       PRES   REMARKS
QUINCY         CLOUDY    66  55  67 NW12      30.08R
GALESBURG*     MOCLDY    65  53  65 W9        30.06R
MACOMB*        CLOUDY    66  56  69 NW12      30.08S
JACKSONVILLE*  CLEAR     73  65  74 W15G22    30.04R
PITTSFIELD*    CLOUDY    70  58  65 NW15G25   30.08R
$$

ILZ028>032-037-038-041>044-048-051>054-059>061-260300-
CENTRAL ILLINOIS

CITY           SKY/WX    TMP DP  RH WIND       PRES   REMARKS
PONTIAC        MOCLDY    75  68  77 W18G25    29.99R
BLOOMINGTON    MOCLDY    75  66  73 W15G22    30.01R
DECATUR        CLOUDY    80  66  62 W9        30.00R HX  82
PEORIA         CLOUDY    69  56  62 NW7       30.04R
LACON*         PTCLDY    68  54  60 NW13G20   30.02R
SPRINGFIELD    MOCLDY    77  65  66 W10G22    30.03R
TAYLORVILLE    MOCLDY    77  67  70 W7        30.02R
$$

ILZ033-039-045-046-055>057-062-063-260300-
EAST-CENTRAL ILLINOIS

CITY           SKY/WX    TMP DP  RH WIND       PRES   REMARKS
CHAMPAIGN      LGT RAIN  75  69  81 S3        29.99R
RANTOUL*       CLOUDY    76  71  83 SW5       29.98R
MATTOON        CLOUDY    77  67  71 SW8       29.99R
PARIS*         PTCLDY    71  67  88 CALM      30.00S
$$

ILZ079-100>102-260300-
SOUTHWEST ILLINOIS

CITY           SKY/WX    TMP DP  RH WIND       PRES   REMARKS
ALTON          CLEAR     75  68  78 CALM      30.02R
BELLEVILLE     CLEAR     77  71  81 W5        30.01R
CAHOKIA*       CLEAR     80  66  62 NW14      30.01R HX  82
SPARTA*        CLEAR     73  70  92 CALM      30.03R
$$

ILZ064>066-069>071-074>076-080>082-084>086-088>090-092>094-260300-
SOUTH-CENTRAL ILLINOIS

CITY           SKY/WX    TMP DP  RH WIND       PRES   REMARKS
CARBONDALE     PTCLDY    71  70  96 CALM      30.02R
CAIRO*         PTCLDY    76  72  88 CALM      30.02R
EFFINGHAM*     CLOUDY    73  73 100 CALM      30.02R
MARION         CLEAR     73  72  94 CALM      30.03R
MT. VERNON     MOCLDY    75  64  69 SW3       30.02S
CENTRALIA*     MOCLDY    75  70  84 CALM      30.00S
SALEM*         CLOUDY    76  70  81 CALM      30.01S
METROPOLIS*    CLEAR     75  71  89 CALM      30.02R
$$

ILZ067-068-072-073-078-083-087-091-260300-
SOUTHEAST ILLINOIS

CITY           SKY/WX    TMP DP  RH WIND       PRES   REMARKS
LAWRENCEVILLE  PTCLDY    76  67  73 CALM      30.00R
FLORA*         PTCLDY    79  71  78 SW5       30.00F HX  81
FAIRFIELD*     MOCLDY    74  71  90 CALM      30.00S
HARRISBURG*    CLEAR     75  72  89 CALM      30.02R
ROBINSON*      PTCLDY    69  68  94 CALM      30.01S
CARMI*         CLEAR     73  70  91 CALM      30.00S
$$

ABBREVIATIONS USED IN REMARKS
   TC - TEMPERATURE IN CELSIUS
  WCI - WIND CHILL INDEX
   HX - HEAT INDEX
  VSB - VISIBILITY
$$





USA.gov is the U.S. government's official web portal to all federal, state and local government web resources and services.